International Skating Union - Official Site

ISU World Cup Astana
December 2-4, 2016

Draw | Lap Times | Index | World Cup

Referee: Bjørn  PETTERSEN  (NOR)
Starter: Evgeniy  BOYARSKIY  (RUS)
StartTime: EndTime: Air Temp: Ice Temp: Humidity:
15:48 16:26 16.6℃ -6.7℃ 39.0%
Result 3000m Ladies Division B
Rankings as of Dec 2 2016 10:01PM
Rank: No.: Name: Nation: Time: Behind: Points:
1 265 Linda  de Vries NED NED 4:05.69200m - 19.73 - (19.7)
600m - 50.84 - (31.1)
1000m - 1:22.12 - (31.2)
1400m - 1:53.73 - (31.6)
1800m - 2:25.59 - (31.8)
2200m - 2:58.12 - (32.5)
2600m - 3:31.32 - (33.1)
3000m - 4:05.69 - (34.3)
32
2 287 Olga  Graf RUS RUS 4:08.45200m - 20.98 - (20.9)
600m - 52.38 - (31.4)
1000m - 1:24.54 - (32.1)
1400m - 1:56.70 - (32.1)
1800m - 2:29.28 - (32.5)
2200m - 3:01.85 - (32.5)
2600m - 3:34.88 - (33.0)
3000m - 4:08.45 - (33.5)
2.76 27
3 234 Stephanie  Beckert GER GER 4:09.95200m - 21.43 - (21.4)
600m - 53.51 - (32.0)
1000m - 1:25.79 - (32.2)
1400m - 1:58.28 - (32.4)
1800m - 2:30.98 - (32.6)
2200m - 3:03.85 - (32.8)
2600m - 3:36.95 - (33.0)
3000m - 4:09.95 - (32.9)
4.26 23
4 204 Marina  Zueva BLR BLR 4:10.20200m - 20.87 - (20.8)
600m - 53.44 - (32.5)
1000m - 1:25.46 - (32.0)
1400m - 1:57.49 - (32.0)
1800m - 2:29.88 - (32.3)
2200m - 3:02.81 - (32.9)
2600m - 3:36.05 - (33.2)
3000m - 4:10.20 - (34.1)
4.51 19
5 230 Nikola  Zdráhalova CZE CZE 4:10.55200m - 20.20 - (20.1)
600m - 52.09 - (31.8)
1000m - 1:24.16 - (32.0)
1400m - 1:57.05 - (32.8)
1800m - 2:30.18 - (33.1)
2200m - 3:03.84 - (33.6)
2600m - 3:37.04 - (33.1)
3000m - 4:10.55 - (33.5)
4.86 15
6 281 Katarzyna  Wozniak POL POL 4:10.99200m - 20.62 - (20.6)
600m - 52.22 - (31.5)
1000m - 1:24.16 - (31.9)
1400m - 1:55.97 - (31.8)
1800m - 2:28.17 - (32.1)
2200m - 3:01.07 - (32.9)
2600m - 3:35.24 - (34.1)
3000m - 4:10.99 - (35.7)
5.30 11
7 248 Maki  Tabata JPN JPN 4:11.03200m - 20.43 - (20.4)
600m - 52.03 - (31.6)
1000m - 1:24.28 - (32.2)
1400m - 1:56.83 - (32.5)
1800m - 2:29.87 - (33.0)
2200m - 3:03.02 - (33.1)
2600m - 3:36.69 - (33.6)
3000m - 4:11.03 - (34.3)
5.34 9
8 247 Ayano  Sato JPN JPN 4:11.12200m - 20.13 - (20.1)
600m - 52.56 - (32.4)
1000m - 1:25.06 - (32.5)
1400m - 1:57.40 - (32.3)
1800m - 2:30.37 - (32.9)
2200m - 3:03.49 - (33.1)
2600m - 3:36.96 - (33.4)
3000m - 4:11.12 - (34.1)
5.43 7
9 279 Natalia  Czerwonka POL POL 4:11.35200m - 20.04 - (20.0)
600m - 51.12 - (31.0)
1000m - 1:22.52 - (31.3)
1400m - 1:54.60 - (32.0)
1800m - 2:27.45 - (32.8)
2200m - 3:01.16 - (33.7)
2600m - 3:35.86 - (34.7)
3000m - 4:11.35 - (35.4)
5.66 6
10 280 Magdalena  Czyszczon POL POL 4:11.57200m - 20.97 - (20.9)
600m - 52.23 - (31.2)
1000m - 1:24.62 - (32.3)
1400m - 1:57.45 - (32.8)
1800m - 2:30.71 - (33.2)
2200m - 3:03.93 - (33.2)
2600m - 3:37.77 - (33.8)
3000m - 4:11.57 - (33.7)
5.88 5
11 277 Ida  Njåtun NOR NOR 4:11.75200m - 20.03 - (20.0)
600m - 51.83 - (31.7)
1000m - 1:24.46 - (32.6)
1400m - 1:57.11 - (32.6)
1800m - 2:29.89 - (32.7)
2200m - 3:03.17 - (33.2)
2600m - 3:36.97 - (33.8)
3000m - 4:11.75 - (34.7)
6.06 4
12 282 Luiza  Zlotkowska POL POL 4:12.05200m - 20.35 - (20.3)
600m - 52.55 - (32.1)
1000m - 1:24.87 - (32.3)
1400m - 1:57.31 - (32.4)
1800m - 2:29.90 - (32.5)
2200m - 3:03.28 - (33.3)
2600m - 3:37.28 - (34.0)
3000m - 4:12.05 - (34.7)
6.36 3
13 291 Yuliya  Skokova RUS RUS 4:12.14200m - 20.17 - (20.1)
600m - 52.08 - (31.9)
1000m - 1:24.56 - (32.4)
1400m - 1:57.11 - (32.5)
1800m - 2:29.81 - (32.7)
2200m - 3:02.77 - (32.9)
2600m - 3:36.62 - (33.8)
3000m - 4:12.14 - (35.5)
6.45 2
14 245 Fuyo  Matsuoka JPN JPN 4:13.33200m - 20.73 - (20.7)
600m - 52.71 - (31.9)
1000m - 1:25.10 - (32.3)
1400m - 1:58.19 - (33.0)
1800m - 2:31.50 - (33.3)
2200m - 3:05.13 - (33.6)
2600m - 3:39.12 - (33.9)
3000m - 4:13.33 - (34.2)
7.64 1
15 210 Brianne  Tutt CAN CAN 4:14.16200m - 20.92 - (20.9)
600m - 53.51 - (32.5)
1000m - 1:25.99 - (32.4)
1400m - 1:58.55 - (32.5)
1800m - 2:31.40 - (32.8)
2200m - 3:04.81 - (33.4)
2600m - 3:39.21 - (34.4)
3000m - 4:14.16 - (34.9)
8.47 0
16 285 Victoria  Filyushkina RUS RUS 4:16.09200m - 21.50 - (21.5)
600m - 54.42 - (32.9)
1000m - 1:27.53 - (33.1)
1400m - 2:00.47 - (32.9)
1800m - 2:34.63 - (34.1)
2200m - 3:08.29 - (33.6)
2600m - 3:42.11 - (33.8)
3000m - 4:16.09 - (33.9)
10.40 0
17 232 Saskia  Alusalu EST EST 4:17.22200m - 20.75 - (20.7)
600m - 52.71 - (31.9)
1000m - 1:25.70 - (32.9)
1400m - 1:59.38 - (33.6)
1800m - 2:33.18 - (33.8)
2200m - 3:07.71 - (34.5)
2600m - 3:42.22 - (34.5)
3000m - 4:17.22 - (34.9)
11.53 0
18 262 Ji Woo  Park KOR KOR 4:17.47200m - 20.71 - (20.7)
600m - 53.09 - (32.3)
1000m - 1:25.93 - (32.8)
1400m - 1:59.46 - (33.5)
1800m - 2:33.31 - (33.8)
2200m - 3:07.71 - (34.4)
2600m - 3:42.39 - (34.6)
3000m - 4:17.47 - (35.0)
11.78 0
19 213 Mei  Han CHN CHN 4:18.37200m - 20.60 - (20.6)
600m - 53.41 - (32.8)
1000m - 1:27.77 - (34.3)
1400m - 2:02.36 - (34.5)
1800m - 2:36.35 - (33.9)
2200m - 3:09.99 - (33.6)
2600m - 3:43.83 - (33.8)
3000m - 4:18.37 - (34.5)
12.68 0
20 218 Jing  Liu CHN CHN 4:18.91200m - 20.72 - (20.7)
600m - 53.11 - (32.3)
1000m - 1:25.99 - (32.8)
1400m - 1:59.55 - (33.5)
1800m - 2:33.46 - (33.9)
2200m - 3:08.29 - (34.8)
2600m - 3:43.42 - (35.1)
3000m - 4:18.91 - (35.4)
13.22 0
21 201 Viola  Feichtner AUT AUT 4:21.41200m - 21.71 - (21.7)
600m - 55.07 - (33.3)
1000m - 1:28.26 - (33.1)
1400m - 2:01.64 - (33.3)
1800m - 2:35.51 - (33.8)
2200m - 3:10.17 - (34.6)
2600m - 3:45.46 - (35.2)
3000m - 4:21.41 - (35.9)
15.72 0
22 275 Ellen  Bjertnes NOR NOR 4:21.83200m - 20.75 - (20.7)
600m - 54.34 - (33.5)
1000m - 1:28.46 - (34.1)
1400m - 2:02.93 - (34.4)
1800m - 2:37.55 - (34.6)
2200m - 3:12.16 - (34.6)
2600m - 3:47.00 - (34.8)
3000m - 4:21.84 - (34.8)
16.15 0
23 231 Elena Moeller  Rigas DEN DEN 4:22.06200m - 21.38 - (21.3)
600m - 53.98 - (32.5)
1000m - 1:27.42 - (33.4)
1400m - 2:01.35 - (33.9)
1800m - 2:35.75 - (34.4)
2200m - 3:10.73 - (34.9)
2600m - 3:46.08 - (35.3)
3000m - 4:22.06 - (35.9)
16.37 0
24 214 Jiachen  Hao CHN CHN 4:23.28200m - 20.63 - (20.6)
600m - 54.32 - (33.6)
1000m - 1:28.63 - (34.3)
1400m - 2:03.07 - (34.4)
1800m - 2:37.20 - (34.1)
2200m - 3:12.28 - (35.0)
2600m - 3:47.60 - (35.3)
3000m - 4:23.28 - (35.6)
17.59 0
25 221 Moyuan  Xu CHN CHN 4:24.58200m - 21.53 - (21.5)
600m - 54.80 - (33.2)
1000m - 1:27.75 - (32.9)
1400m - 2:02.12 - (34.3)
1800m - 2:36.65 - (34.5)
2200m - 3:12.18 - (35.5)
2600m - 3:48.59 - (36.4)
3000m - 4:24.58 - (35.9)
18.89 0
26 254 Tatyana  Klimchuk KAZ KAZ 4:25.33200m - 20.41 - (20.4)
600m - 53.43 - (33.0)
1000m - 1:26.82 - (33.3)
1400m - 2:00.87 - (34.0)
1800m - 2:35.39 - (34.5)
2200m - 3:11.13 - (35.7)
2600m - 3:48.10 - (36.9)
3000m - 4:25.33 - (37.2)
19.64 0
27 256 Yelena  Urvantseva KAZ KAZ 4:25.68200m - 20.76 - (20.7)
600m - 54.86 - (34.0)
1000m - 1:29.43 - (34.5)
1400m - 2:03.90 - (34.4)
1800m - 2:38.36 - (34.4)
2200m - 3:13.40 - (35.0)
2600m - 3:49.04 - (35.6)
3000m - 4:25.68 - (36.6)
19.99 0